Вернуться в каталог

STARLINK-4377

АктивенСвязьSSO
NORAD 53221·PAYLOAD·🇺🇸 United States

Запущен Jul 22, 2022 с Vandenberg Space Force Base

Loading…

Ближайшие Пролёты (ближайшие 24 часа)

TLE

СвежийSource: CelesTrak SupGP

Эпоха: Sep 14, 2026, 21:08 UTC

1 53221C 22084AJ  26257.88104167 -.00025226  00000+0 -78342-3 0  2578
2 53221  97.2831 312.8274 0001178  98.6265   1.0671 15.33438538    14

Отслеживайте STARLINK-4377 в реальном времени с AllMySat

Download on the App Store